EDT,Max TemperatureF,Mean TemperatureF,Min TemperatureF,Max Dew PointF,MeanDew PointF,Min DewpointF,Max Humidity, Mean Humidity, Min Humidity, Max Sea Level PressureIn, Mean Sea Level PressureIn, Min Sea Level PressureIn, Max VisibilityMiles, Mean VisibilityMiles, Min VisibilityMiles, Max Wind SpeedMPH, Mean Wind SpeedMPH, Max Gust SpeedMPH,PrecipitationIn, CloudCover, Events, WindDirDegrees
2014-4-1,82,60,37,52,45,37,100,65,26,30.20,30.14,30.09,10,10,7,8,1,,0.00,0,,243
2014-4-2,82,62,41,55,49,41,100,65,30,30.20,30.15,30.10,10,10,7,9,3,,0.00,0,,224
2014-4-3,86,66,46,63,55,46,100,72,35,30.15,30.08,30.00,10,10,7,13,3,17,0.00,0,,223
2014-4-4,80,66,53,63,59,54,100,80,48,30.09,30.00,29.93,10,9,0,18,4,23,0.00,2,Fog,251
2014-4-5,78,66,55,64,61,55,100,78,57,30.03,29.99,29.94,10,9,4,10,3,16,0.00,4,,287
2014-4-6,68,64,59,64,62,59,100,99,88,30.08,30.02,29.97,10,7,1,9,3,,0.00,8,Rain-Thunderstorm,76
2014-4-7,75,68,60,70,64,61,100,97,78,30.00,29.87,29.80,10,6,0,20,3,34,0.00,6,Fog-Rain-Thunderstorm,169
2014-4-8,69,62,55,66,59,52,100,88,64,29.82,29.73,29.66,10,9,4,14,6,21,0.00,6,Rain,272
2014-4-9,69,60,50,52,48,45,94,70,43,30.16,29.97,29.79,10,10,10,16,7,25,0.00,1,,300
2014-4-10,75,58,41,54,46,41,100,69,35,30.32,30.24,30.17,10,9,1,12,3,17,0.00,0,,220
2014-4-11,77,62,46,59,52,46,100,74,41,30.31,30.24,30.16,10,10,7,10,2,9,0.00,1,,212
2014-4-12,80,65,50,63,56,50,100,76,45,30.25,30.19,30.14,10,10,2,9,2,,0.00,1,,175
2014-4-13,80,65,50,64,58,50,100,77,42,30.21,30.14,30.08,10,10,5,10,2,,0.00,1,,132
2014-4-14,80,68,57,72,65,57,100,88,61,30.08,29.96,29.84,10,10,7,12,3,18,0.00,3,,164
2014-4-15,68,57,46,68,60,41,100,94,81,30.03,29.84,29.71,10,9,2,23,6,30,0.00,5,Rain-Thunderstorm,259
2014-4-16,59,50,41,45,40,36,93,74,55,30.30,30.22,30.04,10,10,10,16,9,25,0.00,1,,62
2014-4-17,64,55,46,54,49,45,94,80,63,30.40,30.32,30.28,10,10,10,16,9,22,0.00,6,,72
2014-4-18,60,58,55,61,57,54,100,98,88,30.28,30.11,29.93,10,8,2,15,8,25,0.00,7,Rain,64
2014-4-19,59,57,55,59,57,54,100,100,94,30.06,29.95,29.90,10,8,2,13,7,18,0.00,8,Rain-Thunderstorm,32
2014-4-20,62,56,51,61,54,52,100,95,77,30.16,30.10,30.04,10,8,2,10,6,17,0.00,8,Rain,17
2014-4-21,77,64,50,59,54,50,100,75,41,30.13,30.06,29.98,10,10,10,9,5,18,0.00,0,,8
2014-4-22,80,64,48,63,57,48,100,77,45,29.98,29.89,29.80,10,9,0,16,3,25,0.00,2,Fog,291
2014-4-23,80,68,55,64,61,55,100,79,48,29.94,29.88,29.84,10,9,3,12,4,17,0.00,1,,302
2014-4-24,82,66,51,68,60,52,100,80,42,30.03,29.97,29.92,10,8,3,9,2,,0.00,3,,117
2014-4-25,78,68,59,68,64,59,100,86,65,29.99,29.93,29.87,10,8,1,12,4,21,0.00,4,Rain,256
2014-4-26,82,68,53,63,60,54,100,77,42,30.04,29.99,29.92,10,8,0,15,3,18,0.00,1,Fog,107
2014-4-27,86,68,51,68,62,52,100,78,45,30.05,29.99,29.93,10,8,0,9,2,,0.00,3,Fog,184
2014-4-28,86,74,62,70,67,63,100,79,55,29.97,29.92,29.85,10,9,1,12,3,16,0.00,2,,224
2014-4-29,80,72,64,72,68,64,100,88,65,29.98,29.93,29.86,10,10,4,10,2,16,0.00,1,,216
2014-4-30,77,70,62,70,67,63,100,90,65,30.08,30.00,29.92,10,10,10,15,2,37,0.00,1,,235